Wind_Speed
40 35 36 33 31 25 20 13 14 17 19 17 15 18 17 19 19 23 25 27 29 29 28 25 24 24 28 31 33 41 40 39 35 35 40 40 39 39
38 35 37 36 34 31 25 18 15 13 17 13 8 13 13 15 17 19 20 21 24 25 30 31 30 32 37 42 44 41 36 38 39 40 40 43 44 42
35 34 33 35 33 30 28 27 27 20 17 22 19 17 17 19 21 26 28 32 31 34 37 40 38 45 44 36 35 39 42 44 43 42 42 44 45 50
36 33 30 33 32 29 28 31 34 34 31 29 31 30 30 30 32 35 37 37 40 43 43 45 47 44 38 38 37 35 37 38 41 41 42 44 48 50
32 26 27 30 33 35 34 34 32 29 30 32 35 32 35 36 36 38 42 40 36 37 33 40 40 38 44 42 41 43 42 44 45 47 47 49 48 48
29 26 28 32 38 38 39 39 37 38 34 33 34 38 39 41 40 38 37 31 35 31 30 33 36 35 34 34 35 41 44 45 45 46 50 52 53 54
26 24 23 20 23 31 33 35 38 35 35 33 37 40 40 39 35 30 28 30 30 27 30 30 37 37 40 45 44 42 43 38 37 37 38 39 41 42
30 27 22 22 28 32 30 30 31 30 28 29 32 34 39 32 26 27 30 29 32 34 35 33 31 29 34 32 32 33 36 40 42 45 44 38 35 33
25 25 22 26 24 24 26 31 33 34 35 36 37 38 33 36 34 32 35 36 32 33 32 33 33 33 33 32 32 31 29 29 29 26 23 22 20 19
20 21 23 23 24 29 30 29 31 33 34 36 36 34 32 32 32 29 28 26 26 28 27 24 24 23 23 22 22 22 22 22 20 18 16 17 18 19
18 20 22 23 25 24 25 27 27 27 27 28 28 28 24 27 27 22 19 18 18 17 16 15 16 16 16 15 15 15 14 15 16 17 17 17 18 19
22 23 25 23 23 25 22 19 18 15 15 17 12 10 9 7 5 6 8 9 10 10 9 8 8 8 5 10 11 15 16 17 18 18 20 21 20 20
12 8 7 9 9 12 11 11 11 10 7 6 5 3 0 1 0 0 1 2 2 3 4 4 6 5 5 7 13 15 17 19 21 20 19 21 22 23
11 11 11 7 4 4 6 10 9 8 5 3 3 3 3 4 3 3 2 2 3 5 6 7 7 9 9 9 7 10 9 13 15 18 19 22 22 21
16 16 14 13 12 12 12 10 7 7 6 6 7 7 6 4 4 4 5 6 7 8 7 8 8 8 8 7 10 11 13 14 12 15 21 23 22 21
18 17 15 14 12 12 11 10 9 8 9 9 9 7 5 4 4 4 2 4 1 4 12 13 10 8 8 8 10 8 7 10 17 20 23 23 20 19
13 13 12 12 11 10 10 9 8 7 7 6 5 4 4 2 5 4 3 2 1 4 7 12 12 10 7 10 11 11 13 16 19 22 23 24 20 20
10 11 11 11 10 8 7 7 6 5 5 3 3 3 4 5 4 5 3 2 3 4 6 12 17 14 5 6 10 14 18 19 20 20 21 24 25 21
10 12 11 10 8 7 5 4 4 4 3 3 3 3 3 3 4 4 9 6 4 3 6 9 12 16 15 14 13 14 18 16 21 26 23 25 26 25
9 9 9 7 5 4 3 3 3 2 2 3 3 3 2 3 6 4 6 10 8 7 7 5 10 15 18 16 17 16 13 17 23 23 29 26 21 20
7 6 6 5 3 3 3 5 4 3 2 3 4 4 3 2 4 5 6 8 5 7 8 7 11 12 14 15 17 18 19 18 16 21 22 26 29 24
6 4 3 3 3 4 4 1 2 4 3 3 5 5 3 2 5 3 6 7 6 9 12 11 14 9 12 15 18 20 21 21 16 16 20 16 22 23
4 2 1 0 1 2 2 4 3 5 5 4 5 4 2 3 5 3 5 6 8 8 11 16 17 8 10 11 15 20 22 22 22 22 27 20 18 18
Wind_Direction
199 198 200 199 200 198 202 221 191 185 201 210 215 236 260 262 262 256 260 263 263 263 259 259 259 263 279 283 287 279 281 283 284 284 277 277 278 280
201 203 200 205 208 204 211 219 216 221 212 207 224 240 242 244 249 255 261 275 277 265 260 259 259 274 289 286 287 284 273 281 282 282 283 279 273 273
205 205 210 210 214 216 220 223 235 238 231 223 230 237 255 261 266 272 272 278 271 270 267 268 267 281 290 288 284 279 278 278 281 281 280 278 272 272
208 210 215 212 213 222 227 233 233 247 246 246 250 261 265 268 272 278 277 279 281 281 281 273 277 287 281 281 281 274 275 277 280 281 280 280 280 277
213 213 213 221 230 233 234 237 239 241 248 260 261 266 271 274 280 283 282 280 280 282 284 268 269 270 275 273 272 272 276 279 279 279 279 281 279 278
208 223 232 237 238 237 236 239 246 250 254 257 259 266 275 278 280 280 279 280 282 278 263 264 270 274 277 273 281 284 288 285 282 279 279 278 281 283
229 241 238 229 230 238 242 247 251 256 255 257 262 267 273 279 282 277 277 277 264 260 262 263 273 272 276 281 281 282 283 284 291 293 293 293 293 297
233 248 238 233 228 236 240 243 250 253 255 257 264 270 274 264 277 256 260 256 273 271 272 268 269 274 277 277 278 280 285 288 291 293 295 301 302 301
233 241 238 233 235 235 236 238 244 250 253 258 260 257 258 257 266 273 278 277 273 276 279 276 273 275 280 286 290 293 298 303 304 308 310 312 314 314
224 228 237 233 230 231 235 237 242 246 254 255 255 259 268 273 273 272 272 270 273 274 276 280 280 282 283 287 293 299 303 306 310 312 314 313 311 311
212 211 217 227 239 247 248 246 244 248 256 265 266 265 266 275 275 274 272 268 265 269 269 272 274 281 287 288 292 301 313 317 316 315 310 308 311 312
234 238 238 238 241 244 247 249 249 243 249 259 259 267 267 288 276 269 271 257 254 258 264 268 283 304 320 311 320 321 330 326 324 321 316 314 315 316
200 196 213 241 247 240 236 225 223 209 200 213 206 220 261 245 321 40 300 296 284 260 279 281 292 300 296 298 313 327 327 330 334 330 329 324 321 326
129 114 100 97 125 142 154 142 148 150 146 163 145 116 110 114 91 76 70 39 2 338 317 305 298 296 303 302 306 323 328 315 310 306 311 313 321 318
111 107 108 109 108 109 107 109 128 136 128 112 97 94 83 65 43 31 15 353 342 331 333 322 304 295 280 273 279 288 299 303 295 288 302 308 321 322
99 100 99 97 98 103 110 107 100 99 94 86 78 78 64 34 17 23 21 19 104 323 323 329 329 316 302 298 303 299 298 307 296 295 301 312 319 320
99 98 95 90 83 82 88 90 88 86 82 85 89 67 43 44 6 8 24 61 90 340 335 319 322 325 315 321 324 309 295 295 294 303 312 315 320 320
105 102 93 89 84 74 67 71 70 63 57 48 49 59 32 19 29 356 357 54 17 347 343 333 334 331 326 309 304 311 317 320 318 322 324 322 321 323
87 93 98 95 92 86 67 46 44 51 30 9 5 35 54 20 8 20 342 343 320 333 354 352 334 320 331 322 290 308 318 324 330 330 329 329 324 329
86 88 86 85 73 65 34 10 23 18 37 9 3 9 51 21 349 349 335 338 3 15 339 342 322 322 330 332 329 336 347 322 322 321 329 326 324 333
86 90 97 94 68 40 67 37 15 4 34 0 340 347 354 354 332 349 339 341 3 332 318 319 316 317 327 329 320 322 320 326 323 320 321 324 328 328
87 82 69 82 94 55 17 156 300 324 325 325 330 331 11 5 335 342 337 339 350 335 326 325 303 310 329 321 318 321 321 319 317 314 313 305 315 307
90 44 19 283 151 179 274 318 306 297 315 304 313 323 11 10 319 332 338 326 320 335 322 307 317 301 300 308 321 326 320 322 327 325 316 313 301 286
Height
1482 1488 1494 1500 1504 1508 1510 1513 1516 1519 1523 1527 1529 1531 1533 1534 1536 1539 1542 1543 1545 1546 1548 1548 1549 1549 1550 1550 1550 1550 1550 1549 1549 1548 1548 1548 1547 1546
1477 1483 1490 1495 1500 1503 1506 1510 1512 1516 1517 1521 1525 1527 1530 1531 1533 1535 1537 1538 1539 1540 1542 1542 1542 1542 1543 1542 1541 1540 1541 1541 1540 1539 1538 1537 1536 1535
1473 1480 1485 1491 1494 1499 1503 1506 1509 1512 1514 1517 1520 1523 1525 1527 1528 1530 1531 1531 1532 1533 1533 1534 1534 1534 1534 1532 1531 1532 1532 1531 1529 1527 1526 1525 1524 1522
1469 1476 1481 1485 1489 1493 1498 1501 1504 1508 1510 1512 1514 1515 1520 1522 1522 1522 1522 1522 1522 1523 1524 1524 1524 1524 1523 1522 1522 1521 1521 1519 1517 1516 1514 1514 1512 1510
1464 1471 1477 1480 1484 1486 1491 1494 1498 1501 1503 1505 1506 1509 1512 1512 1512 1513 1514 1513 1513 1514 1515 1514 1514 1513 1512 1511 1511 1511 1510 1509 1507 1505 1503 1501 1499 1497
1463 1466 1470 1472 1475 1480 1483 1487 1491 1493 1496 1498 1499 1501 1503 1504 1504 1503 1503 1505 1506 1508 1506 1504 1504 1503 1502 1500 1500 1501 1499 1497 1495 1492 1491 1488 1486 1483
1458 1461 1463 1467 1471 1475 1479 1481 1484 1487 1489 1491 1491 1493 1493 1495 1495 1495 1496 1498 1496 1497 1496 1495 1494 1493 1491 1491 1489 1488 1487 1485 1483 1481 1480 1478 1475 1472
1452 1455 1458 1463 1466 1470 1473 1474 1477 1480 1482 1483 1484 1486 1485 1484 1487 1486 1488 1489 1489 1489 1489 1487 1485 1483 1482 1480 1479 1478 1477 1475 1473 1472 1470 1467 1464 1462
1446 1449 1452 1456 1459 1462 1464 1467 1470 1471 1473 1474 1476 1477 1476 1478 1478 1478 1478 1479 1479 1481 1479 1477 1478 1475 1473 1471 1470 1469 1467 1465 1463 1463 1462 1460 1458 1456
1442 1445 1448 1450 1452 1454 1457 1459 1461 1462 1464 1466 1466 1466 1466 1467 1467 1468 1469 1469 1470 1470 1470 1469 1469 1467 1466 1465 1464 1463 1461 1460 1458 1457 1456 1455 1452 1450
1437 1439 1442 1446 1447 1450 1452 1453 1454 1455 1456 1457 1458 1458 1459 1459 1460 1461 1460 1462 1462 1463 1463 1463 1461 1460 1459 1458 1457 1457 1456 1454 1453 1453 1450 1450 1449 1447
1433 1435 1438 1441 1442 1444 1446 1447 1449 1449 1450 1450 1452 1453 1453 1456 1455 1456 1457 1457 1458 1458 1459 1459 1456 1456 1456 1455 1454 1453 1451 1450 1449 1447 1445 1445 1443 1442
1428 1430 1432 1434 1437 1438 1438 1440 1443 1445 1447 1449 1449 1451 1453 1455 1456 1454 1455 1455 1456 1456 1456 1455 1454 1454 1454 1453 1452 1451 1448 1447 1444 1442 1441 1440 1440 1437
1426 1429 1431 1433 1437 1438 1440 1441 1442 1446 1448 1451 1450 1449 1452 1454 1455 1456 1455 1454 1454 1455 1455 1454 1453 1452 1451 1450 1451 1449 1446 1446 1444 1441 1438 1437 1436 1434
1428 1430 1433 1436 1439 1441 1444 1446 1447 1449 1451 1450 1449 1450 1453 1454 1454 1454 1454 1453 1453 1453 1454 1453 1451 1450 1449 1448 1447 1446 1444 1442 1440 1438 1433 1430 1429 1427
1430 1433 1435 1439 1442 1444 1445 1448 1450 1451 1452 1451 1452 1453 1453 1453 1453 1453 1453 1454 1454 1453 1452 1450 1449 1447 1446 1444 1443 1442 1441 1440 1437 1432 1429 1426 1425 1423
1432 1435 1438 1441 1445 1447 1448 1449 1451 1452 1451 1451 1451 1451 1452 1453 1452 1452 1452 1452 1452 1451 1451 1448 1447 1446 1443 1441 1440 1439 1437 1434 1431 1428 1425 1421 1420 1418
1434 1436 1440 1442 1446 1449 1450 1450 1450 1451 1450 1450 1450 1450 1450 1450 1450 1450 1450 1449 1451 1450 1447 1445 1443 1442 1442 1440 1438 1435 1432 1430 1428 1425 1423 1418 1414 1412
1438 1441 1442 1444 1445 1447 1450 1450 1449 1450 1450 1449 1449 1449 1448 1449 1449 1449 1447 1447 1446 1446 1445 1444 1443 1441 1440 1439 1436 1433 1429 1426 1424 1422 1419 1417 1411 1407
1440 1442 1443 1443 1445 1444 1449 1449 1450 1450 1449 1448 1447 1447 1447 1447 1447 1446 1446 1444 1444 1444 1444 1444 1441 1441 1439 1435 1431 1429 1428 1426 1423 1418 1415 1412 1408 1404
1442 1443 1444 1444 1444 1446 1447 1447 1448 1449 1448 1447 1446 1445 1445 1445 1446 1445 1445 1444 1443 1442 1442 1442 1440 1438 1437 1434 1431 1428 1427 1424 1421 1418 1414 1410 1404 1398
1443 1444 1444 1445 1446 1446 1447 1448 1448 1446 1446 1445 1444 1445 1445 1445 1445 1444 1444 1443 1442 1441 1441 1439 1436 1435 1434 1433 1429 1426 1423 1419 1416 1414 1412 1410 1405 1399
1444 1443 1443 1444 1445 1447 1447 1446 1446 1444 1443 1443 1443 1444 1445 1444 1442 1443 1443 1441 1440 1439 1436 1434 1434 1433 1431 1428 1425 1422 1419 1415 1412 1407 1405 1403 1400 1397